User: anonymous   Login
Location: San Antonio
(29.4240°N, 98.4930°W)
Time: 08:34:46
(UTC-05:00)
Language:

Envisat - Orbit

View from above orbital plane
View from above orbital plane
View from above satellite
View from above satellite

Ground track
Ground track

The orbit data is extracted from the following two-line orbital elements,

1 27386U 02009A   24194.12289468  .00000197  00000-0  78144-4 0  9992
2 27386  98.2833 154.3467 0001413  87.0936 283.5818 14.38603829172169
Epoch (UTC): 12 July 2024 02:56:58
Eccentricity: 0.0001413
inclination: 98.2833°
perigee height: 762 km
apogee height: 764 km
right ascension of ascending node: 154.3467°
argument of perigee: 87.0936°
revolutions per day: 14.38603829
mean anomaly at epoch: 283.5818°
orbit number at epoch: 17216

The dashed part of the orbit path shows where the satellite is in the earth's shadow,  

DLR